SESEB ESMX-ESMQ

Flight info

Callsign SESEB
Flight time 0h 22m
Altitude
Route
Aircraft TBM9

Departure

Time 2026-05-06 17:19
Airport Växjö Kronoberg Airport (ESMX)

Arrival

Time 2026-05-06 17:42
Airport Kalmar Airport (ESMQ)
Time Latitude Longitude Altitude Speed Heading
2026-05-06 17:05 56.92355 14.73016 603 ft 0 kts 111°
2026-05-06 17:13 56.92347 14.72999 603 ft 8 kts 287°
2026-05-06 17:13 56.92323 14.72899 616 ft 11 kts 192°
2026-05-06 17:13 56.92247 14.72866 606 ft 12 kts 193°
2026-05-06 17:14 56.92166 14.72833 608 ft 12 kts 192°
2026-05-06 17:14 56.92081 14.72795 616 ft 13 kts 192°
2026-05-06 17:14 56.92003 14.72716 621 ft 14 kts 232°
2026-05-06 17:14 56.91984 14.72569 613 ft 0 kts 278°
2026-05-06 17:16 56.91997 14.72452 615 ft 11 kts 282°
2026-05-06 17:16 56.92034 14.72420 611 ft 0 kts 12°
2026-05-06 17:17 56.92035 14.72421 611 ft 3 kts 13°
2026-05-06 17:18 56.92297 14.72530 606 ft 78 kts 14°
2026-05-06 17:18 56.93019 14.72886 736 ft 124 kts 30°
2026-05-06 17:18 56.93907 14.73200 949 ft 140 kts 10°
2026-05-06 17:18 56.94888 14.72815 1118 ft 151 kts 343°
2026-05-06 17:19 56.95749 14.71589 1171 ft 163 kts 315°
2026-05-06 17:19 56.96207 14.69721 1282 ft 165 kts 285°
2026-05-06 17:19 56.96041 14.67675 1428 ft 167 kts 254°
2026-05-06 17:19 56.95256 14.66082 1414 ft 173 kts 217°
2026-05-06 17:20 56.94097 14.65484 1461 ft 177 kts 193°
2026-05-06 17:20 56.92869 14.65763 1492 ft 180 kts 168°
2026-05-06 17:20 56.91865 14.67114 1522 ft 183 kts 142°
2026-05-06 17:20 56.91001 14.68798 1654 ft 182 kts 143°
2026-05-06 17:21 56.90026 14.70290 1714 ft 186 kts 144°
2026-05-06 17:21 56.88944 14.71788 1714 ft 200 kts 144°
2026-05-06 17:21 56.87854 14.73402 1798 ft 204 kts 140°
2026-05-06 17:21 56.86826 14.75110 1872 ft 187 kts 139°
2026-05-06 17:22 56.85877 14.76710 1801 ft 186 kts 137°
2026-05-06 17:22 56.85043 14.78468 1859 ft 182 kts 123°
2026-05-06 17:22 56.84453 14.80498 1849 ft 181 kts 113°
2026-05-06 17:22 56.84083 14.82687 1805 ft 182 kts 103°
2026-05-06 17:23 56.83875 14.84984 1782 ft 180 kts 96°
2026-05-06 17:23 56.83730 14.87239 1721 ft 182 kts 96°
2026-05-06 17:23 56.83571 14.89533 1706 ft 184 kts 96°
2026-05-06 17:23 56.83416 14.91909 1707 ft 189 kts 96°
2026-05-06 17:24 56.83217 14.94328 1761 ft 195 kts 99°
2026-05-06 17:24 56.82923 14.96729 1688 ft 192 kts 110°
2026-05-06 17:24 56.82446 14.98974 1710 ft 186 kts 111°
2026-05-06 17:24 56.82002 15.01202 1604 ft 188 kts 106°
2026-05-06 17:25 56.81774 15.03552 1544 ft 187 kts 97°
2026-05-06 17:25 56.81590 15.05917 1409 ft 188 kts 99°
2026-05-06 17:25 56.81418 15.08241 1448 ft 183 kts 98°
2026-05-06 17:25 56.81351 15.10552 1404 ft 182 kts 89°
2026-05-06 17:26 56.81377 15.12802 1543 ft 179 kts 90°
2026-05-06 17:26 56.81363 15.15129 1591 ft 189 kts 91°
2026-05-06 17:26 56.81302 15.17562 1687 ft 195 kts 93°
2026-05-06 17:26 56.81217 15.20060 1704 ft 200 kts 94°
2026-05-06 17:27 56.81120 15.22633 1457 ft 192 kts 94°
2026-05-06 17:27 56.81055 15.24936 1164 ft 183 kts 91°
2026-05-06 17:27 56.81069 15.27331 1023 ft 191 kts 90°
2026-05-06 17:27 56.81011 15.29763 1063 ft 196 kts 96°
2026-05-06 17:28 56.80843 15.32189 1285 ft 192 kts 99°
2026-05-06 17:28 56.80614 15.34623 1291 ft 198 kts 100°
2026-05-06 17:28 56.80359 15.37118 1266 ft 201 kts 101°
2026-05-06 17:28 56.80102 15.39644 1224 ft 203 kts 101°
2026-05-06 17:29 56.79847 15.42183 1209 ft 203 kts 101°
2026-05-06 17:29 56.79579 15.44708 1215 ft 202 kts 102°
2026-05-06 17:29 56.79314 15.47228 1226 ft 202 kts 99°
2026-05-06 17:29 56.79077 15.49736 1313 ft 200 kts 100°
2026-05-06 17:30 56.78819 15.52244 1256 ft 203 kts 101°
2026-05-06 17:30 56.78577 15.54793 1225 ft 203 kts 99°
2026-05-06 17:30 56.78330 15.57332 1161 ft 204 kts 101°
2026-05-06 17:30 56.78069 15.59868 1140 ft 204 kts 101°
2026-05-06 17:31 56.77780 15.62401 1105 ft 204 kts 103°
2026-05-06 17:31 56.77444 15.64915 1053 ft 205 kts 104°
2026-05-06 17:31 56.77067 15.67408 1041 ft 204 kts 107°
2026-05-06 17:31 56.76652 15.69905 946 ft 206 kts 107°
2026-05-06 17:32 56.76193 15.72310 1058 ft 198 kts 111°
2026-05-06 17:32 56.75552 15.74433 1338 ft 194 kts 123°
2026-05-06 17:32 56.74781 15.76517 1262 ft 202 kts 124°
2026-05-06 17:32 56.73965 15.78655 1126 ft 207 kts 124°
2026-05-06 17:33 56.73152 15.80798 1150 ft 204 kts 124°
2026-05-06 17:33 56.72327 15.82923 1100 ft 205 kts 125°
2026-05-06 17:33 56.71509 15.85044 1104 ft 204 kts 123°
2026-05-06 17:33 56.70868 15.87334 1102 ft 203 kts 114°
2026-05-06 17:34 56.70299 15.89689 1088 ft 203 kts 112°
2026-05-06 17:34 56.69788 15.92066 1118 ft 202 kts 111°
2026-05-06 17:34 56.69300 15.94453 1157 ft 201 kts 111°
2026-05-06 17:34 56.68768 15.96785 1259 ft 198 kts 110°
2026-05-06 17:35 56.68415 15.99198 1263 ft 200 kts 98°
2026-05-06 17:35 56.68205 16.01709 1227 ft 201 kts 97°
2026-05-06 17:35 56.68039 16.04234 1221 ft 200 kts 96°
2026-05-06 17:36 56.67803 16.09247 1290 ft 197 kts 91°
2026-05-06 17:36 56.67828 16.11706 1333 ft 189 kts 89°
2026-05-06 17:36 56.67800 16.13979 1283 ft 174 kts 92°
2026-05-06 17:36 56.67770 16.16145 1233 ft 169 kts 89°
2026-05-06 17:37 56.67851 16.18264 1131 ft 168 kts 83°
2026-05-06 17:37 56.67992 16.20433 1122 ft 178 kts 82°
2026-05-06 17:37 56.68295 16.22597 1214 ft 174 kts 52°
2026-05-06 17:37 56.69316 16.23243 791 ft 168 kts 348°
2026-05-06 17:38 56.70386 16.22225 757 ft 177 kts 317°
2026-05-06 17:38 56.70615 16.20120 950 ft 182 kts 250°
2026-05-06 17:38 56.69641 16.18841 1158 ft 179 kts 179°
2026-05-06 17:38 56.68673 16.19991 1400 ft 174 kts 110°
2026-05-06 17:39 56.68958 16.21920 1360 ft 168 kts 39°
2026-05-06 17:39 56.70088 16.21942 1258 ft 177 kts 341°
2026-05-06 17:39 56.71207 16.21094 1335 ft 171 kts 346°
2026-05-06 17:39 56.72156 16.21392 1485 ft 131 kts 48°
2026-05-06 17:40 56.72322 16.22976 1232 ft 133 kts 103°
2026-05-06 17:40 56.72073 16.24371 847 ft 108 kts 111°
2026-05-06 17:40 56.71663 16.25472 594 ft 105 kts 131°
2026-05-06 17:40 56.71086 16.26253 375 ft 105 kts 142°
2026-05-06 17:41 56.70443 16.26946 200 ft 111 kts 147°
2026-05-06 17:41 56.69783 16.27568 71 ft 103 kts 147°
2026-05-06 17:41 56.69193 16.28129 22 ft 82 kts 147°
2026-05-06 17:41 56.68780 16.28553 20 ft 58 kts 153°
2026-05-06 17:42 56.68468 16.28836 19 ft 43 kts 152°
2026-05-06 17:42 56.68210 16.29083 21 ft 35 kts 150°
2026-05-06 17:42 56.67990 16.29291 19 ft 36 kts 152°
2026-05-06 17:42 56.67871 16.29395 20 ft 8 kts 85°
2026-05-06 17:43 56.67891 16.29389 19 ft 3 kts 310°
2026-05-06 17:43 56.67853 16.29332 20 ft 11 kts 267°
2026-05-06 17:43 56.67842 16.29198 20 ft 4 kts 261°
2026-05-06 17:43 56.67842 16.29197 20 ft 0 kts 261°
2026-05-06 17:45 56.67836 16.29099 20 ft 8 kts 281°
2026-05-06 17:45 56.67853 16.28978 20 ft 12 kts 280°
2026-05-06 17:45 56.67859 16.28887 20 ft 7 kts 278°
2026-05-06 17:46 56.67870 16.28676 19 ft 21 kts 288°
2026-05-06 17:46 56.67891 16.28559 19 ft 9 kts 288°
2026-05-06 17:46 56.67869 16.28483 18 ft 0 kts 225°